User: anonymous   Login
Location: ??
(35.5052°N, 139.7262°E)
Time: 05:43:55
(UTC+00:00)
Language:

Cosmos 1151 Rocket - Orbit

View from above orbital plane
View from above orbital plane
View from above satellite
View from above satellite

Ground track
Ground track

The orbit data is extracted from the following two-line orbital elements,

1 11672U 80005B   21265.43885069  .00000130  00000-0  11441-4 0  9998
2 11672  82.5158  48.3811 0016707 178.2025 181.9255 14.88066275255111
Epoch (UTC): 22 September 2021 10:31:56
Eccentricity: 0.0016707
inclination: 82.5158°
perigee height: 592 km
apogee height: 615 km
right ascension of ascending node: 48.3811°
argument of perigee: 178.2025°
revolutions per day: 14.88066275
mean anomaly at epoch: 181.9255°
orbit number at epoch: 25511

The dashed part of the orbit path shows where the satellite is in the earth's shadow,  

DLR